DLH4NC EDDM-LIEE

Flight info

Callsign DLH4NC
Flight time 1h 30m
Altitude 37000
Route TURBU6E/08R TURBU Y107 TOBSO DCT BAKOR DCT TINTO DCT LABOM/N0362F190 Q125 KOVAS
Aircraft A321/M-SDE3FGHIRWY/LB1

Departure

Time 2026-05-04 16:35
Airport Munich Airport (EDDM)

Arrival

Time 2026-05-04 18:05
Airport Cagliari Elmas Airport (LIEE)
Time Latitude Longitude Altitude Speed Heading
2026-05-04 16:01 48.35237 11.79356 1486 ft 0 kts 263°
2026-05-04 16:25 48.35239 11.79384 1483 ft 4 kts 263°
2026-05-04 16:26 48.35288 11.79483 1479 ft 4 kts 173°
2026-05-04 16:26 48.35299 11.79481 1474 ft 0 kts 173°
2026-05-04 16:28 48.35240 11.79492 1479 ft 13 kts 173°
2026-05-04 16:28 48.34879 11.79554 1479 ft 19 kts 173°
2026-05-04 16:29 48.34737 11.78861 1474 ft 32 kts 264°
2026-05-04 16:30 48.34635 11.77523 1478 ft 52 kts 263°
2026-05-04 16:31 48.34556 11.76501 1485 ft 47 kts 263°
2026-05-04 16:31 48.34457 11.75253 1482 ft 14 kts 253°
2026-05-04 16:32 48.34216 11.75251 1485 ft 2 kts 174°
2026-05-04 16:33 48.34166 11.75260 1485 ft 7 kts 173°
2026-05-04 16:33 48.34091 11.75416 1475 ft 17 kts 82°
2026-05-04 16:34 48.34220 11.77049 1475 ft 144 kts 83°
2026-05-04 16:34 48.34356 11.78764 1743 ft 171 kts 82°
2026-05-04 16:35 48.34764 11.84375 3303 ft 206 kts 83°
2026-05-04 16:35 48.35257 11.90827 4482 ft 249 kts 83°
2026-05-04 16:36 48.35411 11.93435 5223 ft 252 kts 93°
2026-05-04 16:36 48.33674 11.97806 6683 ft 254 kts 142°
2026-05-04 16:37 48.30860 12.01068 8180 ft 257 kts 148°
2026-05-04 16:37 48.29262 12.02239 8939 ft 256 kts 165°
2026-05-04 16:37 48.25568 12.02564 9963 ft 276 kts 184°
2026-05-04 16:38 48.21680 12.02267 11145 ft 289 kts 187°
2026-05-04 16:39 48.15166 12.00750 12143 ft 330 kts 191°
2026-05-04 16:39 48.10588 11.99562 13429 ft 337 kts 190°
2026-05-04 16:40 48.05922 11.98400 14593 ft 343 kts 190°
2026-05-04 16:40 48.01189 11.97248 14899 ft 344 kts 191°
2026-05-04 16:41 47.96475 11.96104 14917 ft 342 kts 190°
2026-05-04 16:41 47.89387 11.94823 14920 ft 343 kts 182°
2026-05-04 16:42 47.82257 11.93970 14915 ft 342 kts 188°
2026-05-04 16:43 47.77534 11.93088 15179 ft 344 kts 188°
2026-05-04 16:43 47.72755 11.92208 16382 ft 349 kts 188°
2026-05-04 16:43 47.70368 11.91778 16905 ft 352 kts 188°
2026-05-04 16:44 47.60441 11.90038 18840 ft 365 kts 188°
2026-05-04 16:45 47.55343 11.89144 19738 ft 372 kts 188°
2026-05-04 16:46 47.47525 11.87775 21059 ft 381 kts 188°
2026-05-04 16:46 47.42220 11.86842 21958 ft 386 kts 188°
2026-05-04 16:47 47.36843 11.85902 22823 ft 391 kts 188°
2026-05-04 16:47 47.31393 11.84955 23638 ft 397 kts 188°
2026-05-04 16:48 47.23131 11.83534 24662 ft 403 kts 188°
2026-05-04 16:48 47.20339 11.83049 25028 ft 404 kts 188°
2026-05-04 16:49 47.14724 11.82080 25728 ft 409 kts 188°
2026-05-04 16:49 47.09068 11.81098 26529 ft 409 kts 188°
2026-05-04 16:50 47.03392 11.80122 27212 ft 413 kts 188°
2026-05-04 16:50 46.97647 11.79136 27884 ft 418 kts 188°
2026-05-04 16:51 46.91835 11.78137 28545 ft 423 kts 188°
2026-05-04 16:51 46.88910 11.77639 28877 ft 424 kts 188°
2026-05-04 16:51 46.83023 11.76629 29532 ft 428 kts 188°
2026-05-04 16:52 46.77126 11.75617 30434 ft 422 kts 189°
2026-05-04 16:52 46.74266 11.75128 31030 ft 416 kts 189°
2026-05-04 16:53 46.68622 11.74170 32323 ft 400 kts 188°
2026-05-04 16:53 46.60594 11.72822 34282 ft 372 kts 188°
2026-05-04 16:54 46.58053 11.72428 34826 ft 364 kts 188°
2026-05-04 16:55 46.47838 11.71023 35335 ft 374 kts 188°
2026-05-04 16:55 46.42627 11.70298 35595 ft 379 kts 188°
2026-05-04 16:56 46.37343 11.69562 35882 ft 384 kts 188°
2026-05-04 16:56 46.29293 11.68433 36263 ft 391 kts 188°
2026-05-04 16:57 46.26581 11.68059 36392 ft 393 kts 188°
2026-05-04 16:57 46.21112 11.67311 36672 ft 396 kts 189°
2026-05-04 16:58 46.12830 11.66156 37085 ft 401 kts 189°
2026-05-04 16:58 46.10071 11.65776 37108 ft 406 kts 189°
2026-05-04 17:00 45.92626 11.63379 37103 ft 428 kts 189°
2026-05-04 17:01 45.77764 11.61349 37100 ft 429 kts 189°
2026-05-04 17:02 45.65836 11.59725 37090 ft 431 kts 189°
2026-05-04 17:03 45.56859 11.58503 37069 ft 432 kts 189°
2026-05-04 17:03 45.47897 11.57283 37084 ft 434 kts 189°
2026-05-04 17:04 45.35857 11.55670 37095 ft 435 kts 189°
2026-05-04 17:05 45.23785 11.54053 37120 ft 436 kts 189°
2026-05-04 17:06 45.14647 11.52819 37112 ft 445 kts 189°
2026-05-04 17:07 45.06346 11.51706 37119 ft 455 kts 189°
2026-05-04 17:07 44.98937 11.50730 37113 ft 459 kts 189°
2026-05-04 17:08 44.89387 11.49471 37121 ft 460 kts 189°
2026-05-04 17:09 44.83006 11.48621 37131 ft 461 kts 189°
2026-05-04 17:09 44.76604 11.47777 37107 ft 462 kts 189°
2026-05-04 17:10 44.60557 11.45678 37059 ft 464 kts 190°
2026-05-04 17:11 44.54173 11.44839 37058 ft 464 kts 190°
2026-05-04 17:12 44.44487 11.43574 37079 ft 464 kts 190°
2026-05-04 17:13 44.28445 11.41495 37204 ft 464 kts 191°
2026-05-04 17:14 44.19434 11.37564 37206 ft 451 kts 207°
2026-05-04 17:14 44.16521 11.35951 37205 ft 451 kts 207°
2026-05-04 17:15 44.07765 11.31115 37190 ft 451 kts 206°
2026-05-04 17:16 43.96095 11.24712 37124 ft 450 kts 207°
2026-05-04 17:17 43.84481 11.18362 37107 ft 448 kts 207°
2026-05-04 17:18 43.72931 11.12084 37111 ft 447 kts 207°
2026-05-04 17:19 43.61356 11.05816 37119 ft 447 kts 207°
2026-05-04 17:20 43.49774 10.99555 37133 ft 447 kts 208°
2026-05-04 17:20 43.41075 10.94880 37143 ft 447 kts 208°
2026-05-04 17:21 43.29507 10.88687 37128 ft 447 kts 207°
2026-05-04 17:22 43.23702 10.85594 37121 ft 448 kts 207°
2026-05-04 17:23 43.12072 10.79387 37121 ft 449 kts 207°
2026-05-04 17:24 43.03337 10.74750 37133 ft 449 kts 207°
2026-05-04 17:25 42.91692 10.68605 37114 ft 450 kts 207°
2026-05-04 17:26 42.80977 10.62963 37126 ft 451 kts 207°
2026-05-04 17:27 42.66315 10.55283 37109 ft 449 kts 207°
2026-05-04 17:27 42.60614 10.52312 37077 ft 434 kts 207°
2026-05-04 17:28 42.54986 10.49368 37084 ft 433 kts 207°
2026-05-04 17:29 42.38088 10.40569 37089 ft 434 kts 207°
2026-05-04 17:31 42.23954 10.33281 37102 ft 435 kts 207°
2026-05-04 17:32 42.09791 10.25999 37092 ft 436 kts 207°
2026-05-04 17:33 41.98483 10.20216 37109 ft 436 kts 207°
2026-05-04 17:34 41.87166 10.14439 37103 ft 433 kts 207°
2026-05-04 17:35 41.73096 10.07299 37086 ft 432 kts 207°
2026-05-04 17:36 41.67478 10.04456 37093 ft 431 kts 207°
2026-05-04 17:36 41.61873 10.01622 37095 ft 431 kts 207°
2026-05-04 17:37 41.56295 9.98811 37088 ft 431 kts 207°
2026-05-04 17:37 41.50689 9.95988 37073 ft 431 kts 207°
2026-05-04 17:38 41.45075 9.93162 37080 ft 431 kts 207°
2026-05-04 17:38 41.39458 9.90342 37082 ft 431 kts 207°
2026-05-04 17:39 41.31025 9.86119 37061 ft 433 kts 207°
2026-05-04 17:39 41.25379 9.83309 37063 ft 434 kts 207°
2026-05-04 17:40 41.19726 9.80493 37081 ft 434 kts 207°
2026-05-04 17:40 41.14080 9.77683 37069 ft 433 kts 206°
2026-05-04 17:41 41.08445 9.74887 36856 ft 427 kts 206°
2026-05-04 17:41 41.05683 9.73520 36539 ft 421 kts 206°
2026-05-04 17:41 41.02945 9.72167 36009 ft 418 kts 206°
2026-05-04 17:42 41.00224 9.70823 35385 ft 418 kts 206°
2026-05-04 17:42 40.97496 9.69472 34745 ft 418 kts 206°
2026-05-04 17:42 40.94791 9.68133 34342 ft 412 kts 206°
2026-05-04 17:42 40.92118 9.66814 33857 ft 408 kts 206°
2026-05-04 17:43 40.89507 9.65527 33402 ft 403 kts 206°
2026-05-04 17:43 40.86894 9.64243 32958 ft 398 kts 206°
2026-05-04 17:43 40.84316 9.62980 32510 ft 393 kts 206°
2026-05-04 17:43 40.81766 9.61728 32068 ft 388 kts 206°
2026-05-04 17:44 40.79250 9.60493 31634 ft 383 kts 206°
2026-05-04 17:44 40.76769 9.59275 31224 ft 379 kts 206°
2026-05-04 17:44 40.74316 9.58072 30808 ft 373 kts 206°
2026-05-04 17:44 40.71893 9.56883 30386 ft 369 kts 206°
2026-05-04 17:45 40.69497 9.55705 29960 ft 366 kts 206°
2026-05-04 17:45 40.67127 9.54540 29531 ft 361 kts 206°
2026-05-04 17:45 40.64794 9.53397 29136 ft 356 kts 206°
2026-05-04 17:45 40.62489 9.52270 28750 ft 351 kts 206°
2026-05-04 17:46 40.60216 9.51161 28377 ft 347 kts 206°
2026-05-04 17:46 40.57957 9.50059 27999 ft 345 kts 206°
2026-05-04 17:46 40.55713 9.48965 27639 ft 343 kts 206°
2026-05-04 17:46 40.53480 9.47875 27279 ft 342 kts 206°
2026-05-04 17:47 40.51252 9.46787 26905 ft 341 kts 205°
2026-05-04 17:47 40.49028 9.45701 26581 ft 340 kts 205°
2026-05-04 17:47 40.46820 9.44627 26232 ft 337 kts 205°
2026-05-04 17:47 40.44622 9.43560 25884 ft 336 kts 205°
2026-05-04 17:48 40.42440 9.42502 25533 ft 334 kts 205°
2026-05-04 17:48 40.40268 9.41450 25181 ft 332 kts 205°
2026-05-04 17:48 40.38135 9.40417 24812 ft 330 kts 205°
2026-05-04 17:48 40.35988 9.39359 24412 ft 328 kts 205°
2026-05-04 17:49 40.33865 9.38288 24030 ft 326 kts 206°
2026-05-04 17:49 40.31729 9.37199 23634 ft 341 kts 205°
2026-05-04 17:49 40.29427 9.36014 23124 ft 365 kts 205°
2026-05-04 17:49 40.27041 9.34793 22658 ft 370 kts 205°
2026-05-04 17:50 40.24635 9.33579 22192 ft 370 kts 204°
2026-05-04 17:50 40.22229 9.32377 21709 ft 369 kts 204°
2026-05-04 17:50 40.19835 9.31182 21230 ft 367 kts 204°
2026-05-04 17:50 40.17453 9.29993 20765 ft 365 kts 204°
2026-05-04 17:51 40.15084 9.28811 20270 ft 363 kts 204°
2026-05-04 17:51 40.12733 9.27633 19801 ft 361 kts 203°
2026-05-04 17:51 40.10393 9.26453 19314 ft 360 kts 203°
2026-05-04 17:51 40.08066 9.25279 18852 ft 357 kts 204°
2026-05-04 17:52 40.05759 9.24121 18381 ft 353 kts 203°
2026-05-04 17:52 40.03472 9.22983 17872 ft 351 kts 203°
2026-05-04 17:52 40.01198 9.21855 17415 ft 348 kts 203°
2026-05-04 17:52 39.98969 9.20747 16961 ft 345 kts 203°
2026-05-04 17:53 39.96731 9.19635 16504 ft 342 kts 203°
2026-05-04 17:53 39.94518 9.18532 16048 ft 339 kts 203°
2026-05-04 17:53 39.92324 9.17438 15602 ft 336 kts 202°
2026-05-04 17:53 39.90147 9.16352 15159 ft 335 kts 203°
2026-05-04 17:54 39.87981 9.15275 14714 ft 331 kts 202°
2026-05-04 17:54 39.85832 9.14226 14280 ft 329 kts 199°
2026-05-04 17:54 39.83621 9.13454 13846 ft 328 kts 196°
2026-05-04 17:54 39.81419 9.12715 13375 ft 325 kts 196°
2026-05-04 17:55 39.79234 9.11981 12933 ft 323 kts 197°
2026-05-04 17:55 39.77075 9.11092 12154 ft 327 kts 200°
2026-05-04 17:55 39.74937 9.10101 11556 ft 325 kts 202°
2026-05-04 17:55 39.72831 9.09075 10982 ft 322 kts 202°
2026-05-04 17:56 39.70749 9.08051 10479 ft 318 kts 202°
2026-05-04 17:56 39.68693 9.07046 9968 ft 314 kts 202°
2026-05-04 17:56 39.66658 9.06058 9399 ft 310 kts 202°
2026-05-04 17:56 39.64646 9.05088 8823 ft 307 kts 202°
2026-05-04 17:57 39.62666 9.04144 8541 ft 296 kts 202°
2026-05-04 17:57 39.60778 9.03252 8403 ft 281 kts 202°
2026-05-04 17:57 39.58993 9.02413 8055 ft 268 kts 202°
2026-05-04 17:57 39.57253 9.01592 7484 ft 264 kts 203°
2026-05-04 17:58 39.55545 9.00781 6878 ft 264 kts 203°
2026-05-04 17:58 39.53852 8.99975 6450 ft 252 kts 203°
2026-05-04 17:58 39.52260 8.99220 6058 ft 237 kts 203°
2026-05-04 17:58 39.50761 8.98511 5724 ft 222 kts 203°
2026-05-04 17:59 39.49335 8.97838 5435 ft 216 kts 203°
2026-05-04 17:59 39.47938 8.97177 5134 ft 211 kts 202°
2026-05-04 17:59 39.45255 8.95905 4567 ft 200 kts 204°
2026-05-04 18:00 39.43957 8.95292 4301 ft 198 kts 204°
2026-05-04 18:00 39.42662 8.94680 4041 ft 198 kts 203°
2026-05-04 18:00 39.41372 8.94070 3775 ft 197 kts 203°
2026-05-04 18:00 39.40099 8.93469 3520 ft 191 kts 203°
2026-05-04 18:01 39.38880 8.92895 3260 ft 183 kts 202°
2026-05-04 18:01 39.37697 8.92375 3009 ft 177 kts 194°
2026-05-04 18:01 39.36486 8.92503 2757 ft 177 kts 161°
2026-05-04 18:02 39.34605 8.94446 2291 ft 168 kts 140°
2026-05-04 18:02 39.33750 8.95442 2053 ft 163 kts 140°
2026-05-04 18:02 39.32920 8.96409 1825 ft 158 kts 140°
2026-05-04 18:02 39.32114 8.97346 1611 ft 154 kts 140°
2026-05-04 18:03 39.31334 8.98253 1402 ft 146 kts 141°
2026-05-04 18:03 39.30590 8.99118 1211 ft 142 kts 140°
2026-05-04 18:03 39.29863 8.99961 1027 ft 139 kts 140°
2026-05-04 18:03 39.29162 9.00773 840 ft 136 kts 139°
2026-05-04 18:04 39.28459 9.01587 660 ft 136 kts 139°
2026-05-04 18:04 39.27767 9.02406 480 ft 134 kts 139°
2026-05-04 18:04 39.26377 9.04009 122 ft 133 kts 139°
2026-05-04 18:05 39.25694 9.04799 25 ft 125 kts 139°
2026-05-04 18:05 39.25209 9.05357 18 ft 62 kts 138°
2026-05-04 18:05 39.24913 9.05699 19 ft 54 kts 138°
2026-05-04 18:05 39.24686 9.05970 17 ft 20 kts 126°
2026-05-04 18:06 39.24776 9.06137 18 ft 15 kts 324°
2026-05-04 18:06 39.24853 9.06043 18 ft 16 kts 319°
2026-05-04 18:06 39.24941 9.05944 18 ft 18 kts 318°
2026-05-04 18:07 39.25036 9.05833 19 ft 19 kts 317°
2026-05-04 18:07 39.25121 9.05780 19 ft 12 kts 14°
2026-05-04 18:07 39.25173 9.05853 19 ft 9 kts
2026-05-04 18:07 39.25215 9.05808 19 ft 9 kts 320°
2026-05-04 18:08 39.25266 9.05753 19 ft 11 kts 321°
2026-05-04 18:08 39.25331 9.05697 19 ft 11 kts 351°
2026-05-04 18:08 39.25392 9.05766 19 ft 13 kts 52°
2026-05-04 18:08 39.25440 9.05854 19 ft 7 kts 77°
2026-05-04 18:09 39.25395 9.05913 19 ft 0 kts 143°